Погода в Чуеве-Подгорном

Россия / Тамбовская область     51°53′03″N   42°13′58″E
темп.,
°C
ветер,
м/с
пор.,
м/с
влажн.,
%
обл.,
%
осадки,
мм/ч
давл.,
гПа
погр.,
м
9 мая, вс
вс900:00+12ю51295100 0.3 1007337
03:00+11ю3698100 0.3 1007125
06:00+11ю3599100 1.0 1005196
09:00+10з5795100 2.9 1007434
12:00+8з5894100 3.9 1009527
15:00+8з4789100 6.7 1011652
18:00+6сз61091100 0.1 1014528
21:00+5сз61092100 0.1 1016601
10 мая, пн
пн1000:00+4ссз5992100 0.6 1016569
03:00+5ссз51094100 0.6 1017568
06:00+5с71295100 0.1 1017600
09:00+6с81495100 0.8 1017603
12:00+7с101695100 1.8 1016556
15:00+10ссв91893100 3.0 1017740
18:00+10ссв101993100 2.1 1016558
21:00+11ссв101892100 2.4 1017482
11 мая, вт
вт1100:00+11ссв81693100 0.3 1016466
03:00+12св81891100 0.3 1016507
06:00+9ююв5895100 0.1 1019379
09:00+10вюв588187 1.8 1022721
12:00+14вюв68583 0.0 10231349
15:00+16юв685515 0.0 10241664
18:00+13юв4873100 0.1 1024319
21:00+11св3474100 0.3 102477
12 мая, ср
ср1200:00+9в378699 0.0 1024197
03:00+8вюв349544 0.0 102474
06:00+9св25940 0.0 1024172
09:00+13св4585100 0.1 1023567
12:00+12св1292100 0.1 1022172
15:00+16ююв2581100 0.1 1021607
18:00+16вюв498397 0.4 1021535
21:00+14вюв5109182 0.7 1021308
13 мая, чт
чт1300:00+13в379297 0.1 1021176
03:00+12вюв369397 0.2 1021155
06:00+13в369149 0.4 1020174
09:00+15вюв4677100 0.4 1020412
12:00+20юв4666100 0.0 1020964
15:00+22юв566452 0.4 10191391
18:00+18вюв598219 1.5 1019290
21:00+15вюв499457 1.6 1019183